Terminal Aerodrome Forecast
Issued by NWS Sterling, VA

Current Version | Previous Version | Graphics & Text | Print | Product List | Glossary On
Versions: 1 2 3 4 5 6 7 8 9 10 11 12 13 14 15 16 17 18 19 20
000
FTUS41 KLWX 222106 AAA
TAFMRB
TAF AMD
KMRB 222106Z 2221/2318 35006KT 4SM -RA BR OVC060
     FM222300 VRB03KT P6SM OVC080=

USA.gov is the U.S. government's official web portal to all federal, state and local government web resources and services.